Sella Ness, United Kingdom

6:23 AM BST on August 25, 2016 (GMT +0100)
Scatsta

Weather History for EGPM - January, 2013

Change the Weather History Date:

Tuesday, January 8, 2013

  Actual Average Record
Temperature  
Mean Temperature 40 °F -  
Max Temperature 46 °F 41 °F 50 °F (2009)
Min Temperature 33 °F 36 °F 30 °F (1999)
Degree Days  
Heating Degree Days 26    
Moisture  
Dew Point 40 °F    
Average Humidity 91    
Maximum Humidity 100    
Minimum Humidity 81    
Precipitation  
Precipitation 0.00 in - - ()
Sea Level Pressure  
Sea Level Pressure 29.91 in    
Wind  
Wind Speed 11 mph ()    
Max Wind Speed 29 mph    
Max Gust Speed -    
Visibility 4.9 miles    
Events Fog , Rain    
Averages and records for this station are not official NWS values.
T = Trace of Precipitation, MM = Missing Value Source: Averaged Metar Reports

Daily Weather History Graph

Daily Weather History Graph

Search for Another Location

Airport or City:

Trip Planner

Search our weather history database for the weather conditions in past years. The results will help you decide how hot, cold, wet, or windy it might be!

Date:

Astronomy

Jan. 08, 2013 Rise Set
Actual Time 9:05 AM GMT 3:18 PM GMT
Civil Twilight 8:09 AM GMT 4:14 PM GMT
Nautical Twilight 7:13 AM GMT 5:11 PM GMT
Astronomical Twilight 6:21 AM GMT 6:02 PM GMT
Moon 5:12 AM GMT (1/8) 12:13 PM GMT (1/8)
Length of Visible Light 8h 05m
Length of Day
6h 13m
Waning Crescent, 15% of the Moon is Illuminated
Jan 8
Waning Crescent
Jan 11
New
Jan 18
First Quarter
Jan 27
Full
Feb 3
Last Quarter

Hourly Weather History & Observations

Time (GMT) Temp. Windchill Dew Point Humidity Pressure Visibility Wind Dir Wind Speed Gust Speed Precip Events Conditions
12:20 AM 35.6 °F 32.8 °F 35.6 °F 100% 30.01 in 4.3 mi SSW 3.5 mph - N/A   Unknown
12:50 AM 35.6 °F - 33.8 °F 93% 30.01 in 3.1 mi Calm Calm - N/A   Haze
1:20 AM 37.4 °F - 35.6 °F 93% 30.01 in 3.1 mi SSW 1.2 mph - N/A   Haze
1:50 AM 33.8 °F - 33.8 °F 100% 30.01 in 3.7 mi Calm Calm - N/A   Unknown
2:20 AM 33.8 °F - 32.0 °F 93% 30.01 in 6.2 mi Calm Calm - N/A   Unknown
2:50 AM 33.8 °F - 32.0 °F 93% 30.01 in 5.0 mi Calm Calm - N/A   Mostly Cloudy
3:20 AM 33.8 °F - 33.8 °F 100% 30.01 in 1.4 mi Calm Calm - N/A   Haze
3:50 AM 35.6 °F - 33.8 °F 93% 30.01 in 6.2 mi North 2.3 mph - N/A   Scattered Clouds
4:20 AM 33.8 °F - 33.8 °F 100% 30.01 in 6.2 mi NNE 1.2 mph - N/A   Partly Cloudy
4:50 AM 39.2 °F 32.0 °F 37.4 °F 93% 30.01 in 1.8 mi SSE 11.5 mph - N/A   Haze
5:20 AM 39.2 °F 32.0 °F 37.4 °F 93% 30.01 in 6.2 mi SE 11.5 mph - N/A   Unknown
5:50 AM 39.2 °F 30.8 °F 39.2 °F 100% 29.98 in - SE 15.0 mph - N/A   Haze
6:20 AM 42.8 °F 35.8 °F 41.0 °F 93% 29.98 in 3.1 mi SE 13.8 mph - N/A Fog Fog
6:50 AM 42.8 °F 34.8 °F 42.8 °F 100% 29.98 in 6.2 mi SE 17.3 mph - N/A   Scattered Clouds
7:20 AM 42.8 °F 35.8 °F 42.8 °F 100% 29.98 in 6.2 mi SE 13.8 mph - N/A   Scattered Clouds
7:50 AM 42.8 °F 37.5 °F 41.0 °F 93% 29.98 in 6.2 mi ESE 9.2 mph - N/A   Scattered Clouds
8:20 AM 44.6 °F 37.8 °F 41.0 °F 87% 29.98 in 6.2 mi ESE 15.0 mph - N/A   Partly Cloudy
8:50 AM 44.6 °F 37.2 °F 41.0 °F 87% 29.95 in 6.2 mi SE 17.3 mph - N/A   Partly Cloudy
9:20 AM 44.6 °F 36.6 °F 41.0 °F 87% 29.95 in 6.2 mi ESE 19.6 mph - N/A   Scattered Clouds
9:50 AM 44.6 °F 36.1 °F 41.0 °F 87% 29.95 in 6.2 mi SE 21.9 mph - N/A   Scattered Clouds
10:20 AM 44.6 °F 35.9 °F 41.0 °F 87% 29.95 in 6.2 mi SE 23.0 mph - N/A   Scattered Clouds
10:50 AM 44.6 °F 36.6 °F 42.8 °F 93% 29.95 in 6.2 mi ESE 19.6 mph - N/A   Mostly Cloudy
11:20 AM 44.6 °F 36.6 °F 42.8 °F 93% 29.92 in 1.9 mi SE 19.6 mph - N/A   Light Drizzle
11:50 AM 44.6 °F 36.1 °F 44.6 °F 100% 29.92 in 2.5 mi SE 21.9 mph - N/A   Light Drizzle
12:20 PM 44.6 °F 34.9 °F 44.6 °F 100% 29.89 in 0.9 mi SE 28.8 mph - N/A   Light Drizzle
12:50 PM 44.6 °F 35.5 °F 44.6 °F 100% 29.86 in 0.9 mi SE 25.3 mph - N/A   Drizzle
1:50 PM 46.4 °F 38.1 °F 44.6 °F 93% 29.86 in 3.1 mi SE 24.2 mph - N/A Rain Rain
2:20 PM 46.4 °F 38.5 °F 44.6 °F 93% 29.83 in 3.7 mi SE 21.9 mph - N/A Rain Rain
2:50 PM 46.4 °F 39.0 °F 44.6 °F 93% 29.83 in - SSE 19.6 mph - N/A Rain Rain
3:20 PM 46.4 °F 39.0 °F 44.6 °F 93% 29.83 in 1.5 mi SSE 19.6 mph - N/A Rain Rain
3:50 PM 46.4 °F 39.0 °F 46.4 °F 100% 29.83 in 1.9 mi SSW 19.6 mph - N/A   Heavy Drizzle
4:20 PM 46.4 °F 38.5 °F 44.6 °F 93% 29.83 in 6.2 mi SW 21.9 mph - N/A   Drizzle
4:50 PM 46.4 °F 38.5 °F 42.8 °F 87% 29.83 in 6.2 mi SW 21.9 mph - N/A   Partly Cloudy
5:20 PM 46.4 °F 38.5 °F 42.8 °F 87% 29.83 in 6.2 mi WSW 21.9 mph - N/A   Mostly Cloudy
5:50 PM 46.4 °F 37.7 °F 41.0 °F 81% 29.83 in 6.2 mi WSW 26.5 mph - N/A   Mostly Cloudy
6:20 PM 46.4 °F 39.0 °F 41.0 °F 81% 29.83 in 6.2 mi WSW 19.6 mph - N/A   Mostly Cloudy
6:50 PM 46.4 °F 38.1 °F 41.0 °F 81% 29.83 in 6.2 mi SW 24.2 mph - N/A   Overcast
7:20 PM 46.4 °F 38.5 °F 41.0 °F 81% 29.83 in 6.2 mi SW 21.9 mph - N/A   Scattered Clouds
7:50 PM 44.6 °F 37.2 °F 41.0 °F 87% 29.83 in 6.2 mi SSW 17.3 mph - N/A   Unknown
8:20 PM 46.4 °F 39.2 °F 41.0 °F 81% 29.83 in 6.2 mi SW 18.4 mph - N/A   Mostly Cloudy
8:50 PM 44.6 °F 36.9 °F 41.0 °F 87% 29.83 in 6.2 mi SW 18.4 mph - N/A   Mostly Cloudy
9:20 PM 46.4 °F 38.7 °F 41.0 °F 81% 29.83 in 6.2 mi SW 20.7 mph - N/A   Scattered Clouds
9:50 PM 46.4 °F 38.5 °F 41.0 °F 81% 29.83 in 6.2 mi SW 21.9 mph - N/A   Scattered Clouds
10:20 PM 46.4 °F 37.9 °F 41.0 °F 81% 29.83 in 6.2 mi SW 25.3 mph - N/A   Mostly Cloudy
10:50 PM 44.6 °F 35.5 °F 39.2 °F 81% 29.83 in 6.2 mi SW 25.3 mph - N/A   Partly Cloudy
11:20 PM 44.6 °F 35.9 °F 39.2 °F 81% 29.80 in 6.2 mi SW 23.0 mph - N/A   Unknown
11:50 PM 44.6 °F 35.9 °F 39.2 °F 81% 29.80 in 6.2 mi SSW 23.0 mph - N/A   Scattered Clouds